This demonstration page uses our WeatherBlox Daily Observations layout. Learn more.

Hourly Observations for December 6, 2018

Temp ( °F °C ) Dew Point ( °F °C ) Humidity (%) Winds ( mph kmh ) Pressure ( in mb ) Visibility ( mi km ) Precip ( " mm )
12:15 am 00:15 Mostly Cloudy 30 -1 27 -3 86 86 Calm 30.27 1025 10 16.09344 0 0
12:35 am 00:35 Cloudy 32 0 27 -3 80 80 WNW 6 9 30.27 1025 10 16.09344 0 0
12:55 am 00:55 Cloudy 32 0 28 -2 87 87 W 5 7 30.27 1025 10 16.09344 0 0
1:15 am 01:15 Cloudy 32 0 28 -2 87 87 Calm 30.27 1025 10 16.09344 0 0
1:35 am 01:35 Cloudy 32 0 27 -3 80 80 Calm 30.27 1025 10 16.09344 0 0
1:55 am 01:55 Cloudy 34 1 27 -3 75 75 Calm 30.27 1025 10 16.09344 0 0
2:15 am 02:15 Cloudy 32 0 27 -3 80 80 Calm 30.27 1025 10 16.09344 0 0
2:35 am 02:35 Cloudy 34 1 27 -3 75 75 Calm 30.27 1025 10 16.09344 0 0
2:55 am 02:55 Cloudy 34 1 28 -2 81 81 W 3 6 30.27 1025 10 16.09344 0 0
3:15 am 03:15 Cloudy 34 1 28 -2 81 81 W 5 7 30.3 1026 10 16.09344 0 0
3:35 am 03:35 Cloudy 34 1 28 -2 81 81 W 7 11 30.3 1026 10 16.09344 0 0
3:55 am 03:55 Cloudy 34 1 28 -2 81 81 W 8 13 30.3 1026 10 16.09344 0 0
4:15 am 04:15 Cloudy 34 1 27 -3 75 75 WNW 7 11 30.3 1026 10 16.09344 0 0
4:35 am 04:35 Cloudy 34 1 27 -3 75 75 W 5 7 30.3 1026 10 16.09344 0 0
4:55 am 04:55 Cloudy 34 1 27 -3 75 75 Calm 30.3 1026 10 16.09344 0 0
5:15 am 05:15 Cloudy 34 1 27 -3 75 75 Calm 30.3 1026 10 16.09344 0 0
5:35 am 05:35 Cloudy 34 1 27 -3 75 75 NW 5 7 30.3 1026 10 16.09344 0 0
5:55 am 05:55 Cloudy 34 1 27 -3 75 75 WNW 5 7 30.3 1026 10 16.09344 0 0
6:15 am 06:15 Cloudy 34 1 27 -3 75 75 WNW 5 7 30.3 1026 10 16.09344 0 0
6:35 am 06:35 Mostly Cloudy 34 1 27 -3 75 75 W 6 9 30.33 1027 10 16.09344 0 0
6:55 am 06:55 Partly Cloudy 34 1 27 -3 75 75 W 6 9 30.33 1027 10 16.09344 0 0
7:15 am 07:15 Partly Cloudy 34 1 27 -3 75 75 W 5 7 30.33 1027 10 16.09344 0 0
7:35 am 07:35 Sunny 34 1 27 -3 75 75 undefined N/A 30.33 1027 10 16.09344 0 0
7:55 am 07:55 Sunny 34 1 27 -3 75 75 W 5 7 30.33 1027 10 16.09344 0 0
8:15 am 08:15 Sunny 34 1 27 -3 75 75 WNW 5 7 30.33 1027 10 16.09344 0 0
8:35 am 08:35 Sunny 36 2 27 -3 70 70 W 7 11 30.36 1028 10 16.09344 0 0
8:55 am 08:55 Sunny 36 2 27 -3 70 70 W 8 13 30.36 1028 10 16.09344 0 0
9:15 am 09:15 Sunny 37 3 27 -3 65 65 W 10 17 30.36 1028 10 16.09344 0 0
9:35 am 09:35 Sunny 36 2 27 -3 70 70 W 10 17 30.36 1028 10 16.09344 0 0
9:55 am 09:55 Sunny 36 2 27 -3 70 70 W 8 13 30.36 1028 10 16.09344 0 0
10:15 am 10:15 Partly Cloudy 37 3 27 -3 65 65 W 8 13 30.36 1028 10 16.09344 0 0
10:35 am 10:35 Mostly Cloudy 37 3 27 -3 65 65 WNW 6 9 30.36 1028 10 16.09344 0 0
10:55 am 10:55 Cloudy 37 3 27 -3 65 65 W 13 20 30.36 1028 10 16.09344 0 0
11:15 am 11:15 Cloudy 37 3 27 -3 65 65 W 14 22 30.36 1028 10 16.09344 0 0
11:35 am 11:35 Mostly Cloudy 39 4 27 -3 61 61 W 9 15 30.33 1027 10 16.09344 0 0
11:55 am 11:55 Sunny 41 5 27 -3 57 57 W 8 13 30.3 1026 10 16.09344 0 0
12:15 pm 12:15 Sunny 41 5 27 -3 57 57 W 8 13 30.3 1026 10 16.09344 0 0
12:35 pm 12:35 Sunny 41 5 27 -3 57 57 W 8 13 30.3 1026 10 16.09344 0 0
12:55 pm 12:55 Sunny 43 6 27 -3 53 53 SW 9 15 30.3 1026 10 16.09344 0 0
1:15 pm 13:15 Sunny 43 6 27 -3 53 53 W 7 11 30.3 1026 10 16.09344 0 0
1:35 pm 13:35 Sunny 43 6 27 -3 53 53 WSW 12 19 30.27 1025 10 16.09344 0 0
1:55 pm 13:55 Sunny 43 6 27 -3 53 53 W 7 11 30.27 1025 10 16.09344 0 0
2:15 pm 14:15 Sunny 43 6 27 -3 53 53 WSW 7 11 30.27 1025 10 16.09344 0 0
2:35 pm 14:35 Sunny 43 6 27 -3 53 53 W 6 9 30.27 1025 10 16.09344 0 0
2:55 pm 14:55 Sunny 43 6 27 -3 53 53 SW 7 11 30.27 1025 10 16.09344 0 0
3:15 pm 15:15 Partly Cloudy 43 6 27 -3 53 53 SSW 8 13 30.27 1025 10 16.09344 0 0
3:35 pm 15:35 Partly Cloudy 43 6 27 -3 53 53 SSW 7 11 30.27 1025 10 16.09344 0 0
3:55 pm 15:55 Mostly Cloudy 43 6 27 -3 53 53 S 7 11 30.27 1025 10 16.09344 0 0
4:15 pm 16:15 Cloudy 41 5 27 -3 57 57 SSW 8 13 30.27 1025 10 16.09344 0 0
4:35 pm 16:35 Mostly Cloudy 41 5 27 -3 57 57 SSW 9 15 30.27 1025 10 16.09344 0 0
4:55 pm 16:55 Partly Cloudy 41 5 27 -3 57 57 SSW 8 13 30.27 1025 10 16.09344 0 0
5:15 pm 17:15 Clear 41 5 27 -3 57 57 SSW 7 11 30.27 1025 10 16.09344 0 0
5:35 pm 17:35 Clear 41 5 27 -3 57 57 SSW 8 13 30.27 1025 10 16.09344 0 0
5:55 pm 17:55 Partly Cloudy 39 4 27 -3 61 61 SW 7 11 30.27 1025 10 16.09344 0 0
6:15 pm 18:15 Partly Cloudy 39 4 27 -3 61 61 SSW 6 9 30.27 1025 10 16.09344 0 0
6:35 pm 18:35 Mostly Cloudy 39 4 27 -3 61 61 SSW 7 11 30.27 1025 10 16.09344 0 0
6:55 pm 18:55 Cloudy 39 4 27 -3 61 61 SSW 7 11 30.27 1025 10 16.09344 0 0
7:15 pm 19:15 Cloudy 37 3 27 -3 65 65 SSW 7 11 30.27 1025 10 16.09344 0 0
7:35 pm 19:35 Mostly Cloudy 39 4 27 -3 61 61 SW 7 11 30.27 1025 10 16.09344 0 0
7:55 pm 19:55 Partly Cloudy 37 3 27 -3 65 65 SSW 5 7 30.27 1025 10 16.09344 0 0
8:15 pm 20:15 Clear 37 3 27 -3 65 65 SSW 6 9 30.27 1025 10 16.09344 0 0
8:35 pm 20:35 Clear 36 2 27 -3 70 70 SSW 5 7 30.27 1025 10 16.09344 0 0
8:55 pm 20:55 Clear 36 2 27 -3 70 70 SSW 6 9 30.27 1025 10 16.09344 0 0
9:15 pm 21:15 Clear 36 2 27 -3 70 70 SSW 7 11 30.27 1025 10 16.09344 0 0
9:35 pm 21:35 Clear 36 2 27 -3 70 70 SW 6 9 30.27 1025 10 16.09344 0 0
9:55 pm 21:55 Clear 36 2 27 -3 70 70 SW 5 7 30.27 1025 10 16.09344 0 0
10:15 pm 22:15 Clear 36 2 27 -3 70 70 WSW 5 7 30.27 1025 10 16.09344 0 0
10:35 pm 22:35 Clear 36 2 27 -3 70 70 WSW 6 9 30.27 1025 10 16.09344 0 0
10:55 pm 22:55 Clear 36 2 27 -3 70 70 WSW 5 7 30.27 1025 10 16.09344 0 0
11:15 pm 23:15 Clear 36 2 27 -3 70 70 W 6 9 30.27 1025 10 16.09344 0 0
11:35 pm 23:35 Clear 34 1 27 -3 75 75 W 6 9 30.27 1025 10 16.09344 0 0
11:55 pm 23:55 Clear 34 1 28 -2 81 81 W 6 9 30.27 1025 10 16.09344 0 0

Powered by AerisWeather